W5GMO Weather Reports


time (UTC)temp
F
wind
direction
speed
knots
gust
knots
rain 1hr
in
rain 24hr
in
rain mn
in
humidity
%
barometer
mb
20260502170243 59 70 5.2 6.1 0.00 0.00 0.00 37 1014.1
20260502164231 58 310 0.0 0.9 0.00 0.00 0.00 40 1014.5
20260502163726 57 174 2.6 3.5 0.00 0.00 0.00 42 1014.6
20260502163223 58 20 2.6 2.6 0.00 0.00 0.00 40 1014.4
20260502162720 58 12 1.7 2.6 0.00 0.00 0.00 39 1014.6
20260502162216 57 357 1.7 2.6 0.00 0.00 0.00 40 1014.6
20260502161714 57 293 6.1 9.6 0.00 0.00 0.00 41 1014.5
20260502161210 55 265 1.7 1.7 0.00 0.00 0.00 44 1014.5
20260502160709 57 33 3.5 3.5 0.00 0.00 0.00 43 1014.4
20260502160207 56 345 0.9 1.7 0.00 0.00 0.00 44 1014.6
20260502152115 57 296 0.9 0.9 0.00 0.00 0.00 44 1014.8
20260502151612 55 16 2.6 2.6 0.00 0.00 0.00 45 1015.0
20260502151110 55 10 3.5 3.5 0.00 0.00 0.00 46 1014.9
20260502150607 54 30 1.7 2.6 0.00 0.00 0.00 47 1015.0
20260502150103 56 35 7.0 8.7 0.00 0.00 0.00 44 1015.1
20260502130451 51 255 1.7 2.6 0.00 0.00 0.00 58 1014.4
20260502123434 51 334 4.3 6.1 0.00 0.00 0.00 59 1014.8
20260502122931 51 241 1.7 2.6 0.00 0.00 0.00 59 1014.6
20260502122427 51 345 0.0 0.9 0.00 0.00 0.00 59 1014.8
20260502121926 51 338 3.5 5.2 0.00 0.00 0.00 60 1014.5
20260502121422 51 246 0.9 1.7 0.00 0.00 0.00 60 1014.6
20260502120920 51 233 0.0 0.9 0.00 0.00 0.00 60 1014.7
20260502120416 50 40 0.9 1.7 0.00 0.00 0.00 62 1015.0
20260502115913 50 294 1.7 3.5 0.00 0.00 0.00 62 1014.7
20260502115410 50 249 0.9 1.7 0.00 0.00 0.00 62 1014.7
20260502114906 49 261 1.7 1.7 0.00 0.00 0.00 62 1014.6
20260502114403 49 300 3.5 3.5 0.00 0.00 0.00 62 1014.7
20260502113900 49 258 0.9 0.9 0.00 0.00 0.00 62 1014.6
20260502113358 49 257 0.0 0.9 0.00 0.00 0.00 62 1014.6
20260502112856 49 291 1.7 2.6 0.00 0.00 0.00 62 1014.7
20260502112353 49 253 3.5 5.2 0.00 0.00 0.00 62 1014.7
20260502111851 49 266 0.0 0.9 0.00 0.00 0.00 61 1014.7
20260502111348 49 251 3.5 7.0 0.00 0.00 0.00 61 1014.6
20260502110845 49 268 0.9 1.7 0.00 0.00 0.00 61 1014.4
20260502110343 49 254 3.5 5.2 0.00 0.00 0.00 60 1014.5
20260502105840 50 229 1.7 2.6 0.00 0.00 0.00 60 1014.6
20260502105337 50 38 1.7 2.6 0.00 0.00 0.00 59 1014.5
20260502104835 50 12 5.2 7.8 0.00 0.00 0.00 59 1014.4
20260502104332 50 81 2.6 5.2 0.00 0.00 0.00 58 1014.6
20260502103829 50 311 3.5 5.2 0.00 0.00 0.00 59 1014.3
20260502103326 50 238 2.6 2.6 0.00 0.00 0.00 61 1014.1
20260502102824 50 258 1.7 1.7 0.00 0.00 0.00 61 1014.2
20260502102320 50 262 3.5 3.5 0.00 0.00 0.00 61 1014.0
20260502101818 50 232 1.7 1.7 0.00 0.00 0.00 61 1014.2
20260502101316 50 222 1.7 1.7 0.00 0.00 0.00 61 1013.8
20260502100814 51 265 1.7 1.7 0.00 0.00 0.00 61 1014.0
20260502100313 51 260 0.9 0.9 0.00 0.00 0.00 61 1013.8
20260502091247 52 336 0.9 1.7 0.00 0.00 0.00 61 1013.0
20260502090744 52 251 1.7 1.7 0.00 0.00 0.00 61 1012.9
20260502090240 53 358 2.6 2.6 0.00 0.00 0.00 60 1013.1
20260502071141 55 252 0.9 0.9 0.00 0.00 0.00 63 1012.8
20260502070639 55 275 0.9 1.7 0.00 0.00 0.00 62 1012.8
20260502070137 55 294 0.9 0.9 0.00 0.00 0.00 62 1012.8
20260502065635 55 254 0.0 0.9 0.00 0.00 0.00 62 1012.6
20260502065132 55 309 0.9 0.9 0.00 0.00 0.00 61 1012.6
20260502064631 55 311 2.6 2.6 0.00 0.00 0.00 61 1012.5
20260502064128 55 220 1.7 1.7 0.00 0.00 0.00 61 1012.5
20260502063626 55 60 1.7 1.7 0.00 0.00 0.00 60 1012.7
20260502063123 56 273 1.7 2.6 0.00 0.00 0.00 60 1012.5
20260502062620 56 262 0.0 0.9 0.00 0.00 0.00 59 1012.7
20260502062118 56 247 1.7 2.6 0.00 0.00 0.00 59 1012.7
20260502061616 56 319 3.5 3.5 0.00 0.00 0.00 59 1012.9
20260502061113 56 349 1.7 3.5 0.00 0.00 0.00 59 1012.9
20260502060608 56 103 3.5 3.5 0.00 0.00 0.00 59 1013.1
20260502060105 57 337 4.3 7.0 0.00 0.00 0.00 59 1013.3
20260502055603 57 242 1.7 1.7 0.00 0.00 0.00 60 1013.3
20260502055101 57 2 0.9 1.7 0.00 0.00 0.00 61 1013.1
20260502054559 57 256 0.0 0.9 0.00 0.00 0.00 62 1013.1
20260502054055 57 353 0.9 0.9 0.00 0.00 0.00 63 1013.3
20260502053553 57 308 0.9 1.7 0.00 0.00 0.00 64 1013.1
20260502053050 57 184 0.9 1.7 0.00 0.00 0.00 64 1013.0
20260502052549 57 242 0.9 1.7 0.00 0.00 0.00 64 1013.3
20260502052047 57 245 0.0 0.0 0.00 0.00 0.00 65 1013.2
20260502051544 57 130 0.9 0.9 0.00 0.00 0.00 66 1013.1
20260502051042 57 306 0.9 0.9 0.00 0.00 0.00 67 1013.2
20260502050538 57 254 0.0 0.9 0.00 0.00 0.00 68 1013.0
20260502050035 57 201 1.7 1.7 0.00 0.00 0.00 69 1013.1
20260502045532 57 251 0.0 0.0 0.00 0.00 0.00 69 1013.2
20260502045029 57 255 1.7 1.7 0.00 0.00 0.00 69 1013.3
20260502044525 57 246 0.0 0.0 0.00 0.00 0.00 68 1013.3
20260502044021 57 259 0.9 0.9 0.00 0.00 0.00 67 1013.3
20260502043520 58 261 0.9 0.9 0.00 0.00 0.00 66 1013.3
20260502043015 57 253 3.5 3.5 0.00 0.00 0.00 65 1013.1
20260502042511 57 248 1.7 2.6 0.00 0.00 0.00 66 1013.1
20260502042009 57 262 0.0 0.9 0.00 0.00 0.00 67 1013.1
20260502041506 57 256 0.0 0.9 0.00 0.00 0.00 67 1013.0
20260502041003 58 256 0.0 0.0 0.00 0.00 0.00 66 1012.9
20260502040459 58 262 0.9 0.9 0.00 0.00 0.00 65 1013.1
20260502035956 58 250 1.7 1.7 0.00 0.00 0.00 64 1012.8
20260502035451 58 276 0.9 1.7 0.00 0.00 0.00 63 1012.7
20260502034949 58 255 0.0 0.9 0.00 0.00 0.00 63 1012.7
20260502034448 59 255 0.9 1.7 0.00 0.00 0.00 61 1012.8
20260502033946 59 257 0.9 0.9 0.00 0.00 0.00 61 1012.7
20260502033443 59 286 2.6 2.6 0.00 0.00 0.00 60 1012.6
20260502032939 59 247 1.7 2.6 0.00 0.00 0.00 59 1012.5
20260502032436 59 247 2.6 3.5 0.00 0.00 0.00 59 1012.2
20260502031933 59 237 2.6 2.6 0.00 0.00 0.00 58 1012.2
20260502031432 59 152 2.6 3.5 0.00 0.00 0.00 58 1012.1
20260502030930 59 222 3.5 5.2 0.00 0.00 0.00 57 1012.0
20260502030427 59 194 2.6 5.2 0.00 0.00 0.00 57 1011.9
20260502025925 59 125 3.5 3.5 0.00 0.00 0.00 56 1011.8
20260502025422 59 183 0.9 0.9 0.00 0.00 0.00 56 1011.6
20260502024920 59 254 1.7 2.6 0.00 0.00 0.00 56 1012.0
20260502024418 59 177 0.9 1.7 0.00 0.00 0.00 55 1012.0
20260502023915 59 145 1.7 3.5 0.00 0.00 0.00 55 1012.1
20260502023413 59 168 2.6 2.6 0.00 0.00 0.00 55 1012.1
20260502022910 59 126 3.5 5.2 0.00 0.00 0.00 54 1012.0
20260502022406 59 136 3.5 5.2 0.00 0.00 0.00 54 1011.9
20260502021903 59 126 1.7 1.7 0.00 0.00 0.00 54 1012.0
20260502021400 59 128 2.6 2.6 0.00 0.00 0.00 54 1011.9
20260502020858 59 209 0.9 1.7 0.00 0.00 0.00 53 1012.1
20260502020355 60 205 0.9 0.9 0.00 0.00 0.00 52 1012.0
20260502015852 60 243 1.7 1.7 0.00 0.00 0.00 51 1011.7
20260502015349 60 161 1.7 2.6 0.00 0.00 0.00 50 1012.1
20260502014847 60 252 0.9 0.9 0.00 0.00 0.00 49 1012.0
20260502014343 61 178 1.7 1.7 0.00 0.00 0.00 49 1011.8
20260502013839 61 234 0.9 1.7 0.00 0.00 0.00 48 1011.7
20260502013335 61 209 2.6 5.2 0.00 0.00 0.00 48 1011.7
20260502012832 61 119 4.3 7.0 0.00 0.00 0.00 47 1011.6
20260502012330 61 267 2.6 3.5 0.00 0.00 0.00 46 1011.5
20260502011827 61 119 0.9 1.7 0.00 0.00 0.00 46 1011.2
20260502011323 61 201 0.9 1.7 0.00 0.00 0.00 45 1011.3
20260502010820 61 176 3.5 3.5 0.00 0.00 0.00 45 1011.2
20260502010317 62 136 2.6 2.6 0.00 0.00 0.00 44 1011.3
20260502005814 62 150 1.7 2.6 0.00 0.00 0.00 43 1011.1
20260502005312 62 157 3.5 3.5 0.00 0.00 0.00 42 1010.8
20260502004808 63 105 3.5 3.5 0.00 0.00 0.00 41 1010.8
20260502004304 63 197 6.1 7.0 0.00 0.00 0.00 40 1010.7
20260502003803 63 116 2.6 3.5 0.00 0.00 0.00 39 1010.6
20260502003259 63 202 1.7 1.7 0.00 0.00 0.00 39 1010.6
20260502002755 64 198 2.6 2.6 0.00 0.00 0.00 39 1010.4
20260502002253 64 242 1.7 2.6 0.00 0.00 0.00 38 1010.4
20260502001749 64 192 6.1 7.0 0.00 0.00 0.00 38 1010.5
20260502001248 64 187 2.6 3.5 0.00 0.00 0.00 38 1010.4
20260502000745 64 249 5.2 7.0 0.00 0.00 0.00 38 1010.4
20260502000243 64 178 6.1 7.0 0.00 0.00 0.00 38 1010.7
20260501235738 64 191 5.2 7.0 0.00 0.00 0.00 38 1010.6
20260501235235 65 250 2.6 2.6 0.00 0.00 0.00 37 1010.5
20260501234731 65 166 1.7 1.7 0.00 0.00 0.00 36 1010.3
20260501234228 65 195 0.9 1.7 0.00 0.00 0.00 36 1010.3
20260501233726 65 238 3.5 3.5 0.00 0.00 0.00 35 1010.2
20260501233223 65 234 3.5 6.1 0.00 0.00 0.00 35 1010.3
20260501232718 65 240 2.6 3.5 0.00 0.00 0.00 35 1010.3
20260501232216 65 130 5.2 7.0 0.00 0.00 0.00 35 1010.1
20260501231713 66 253 1.7 3.5 0.00 0.00 0.00 35 1010.2
20260501231211 66 172 2.6 2.6 0.00 0.00 0.00 34 1010.3
20260501230709 66 237 3.5 7.0 0.00 0.00 0.00 34 1010.4
20260501230208 66 208 3.5 5.2 0.00 0.00 0.00 35 1010.2
20260501225705 66 246 3.5 5.2 0.00 0.00 0.00 35 1010.3
20260501225202 67 255 1.7 1.7 0.00 0.00 0.00 34 1010.3
20260501224658 66 242 1.7 3.5 0.00 0.00 0.00 35 1010.4
20260501224156 66 225 5.2 8.7 0.00 0.00 0.00 34 1010.4
20260501223652 66 280 5.2 7.0 0.00 0.00 0.00 35 1010.5
20260501223148 66 257 1.7 1.7 0.00 0.00 0.00 34 1010.5
20260501222645 67 173 5.2 7.0 0.00 0.00 0.00 33 1010.5
20260501222142 68 236 4.3 6.1 0.00 0.00 0.00 33 1010.6
20260501221638 67 199 2.6 2.6 0.00 0.00 0.00 34 1010.5
20260501221137 67 148 3.5 6.1 0.00 0.00 0.00 34 1010.8
20260501220633 67 153 1.7 2.6 0.00 0.00 0.00 34 1010.6
20260501220130 67 122 4.3 6.1 0.00 0.00 0.00 34 1010.5
20260501215627 67 198 6.1 7.8 0.00 0.00 0.00 34 1010.7
20260501215122 67 178 5.2 7.8 0.00 0.00 0.00 34 1010.7
20260501214617 67 132 4.3 6.1 0.00 0.00 0.00 34 1010.7
20260501214113 67 242 2.6 2.6 0.00 0.00 0.00 34 1010.8
20260501213610 66 198 1.7 3.5 0.00 0.00 0.00 34 1010.6
20260501213106 66 224 4.3 7.0 0.00 0.00 0.00 35 1010.8
20260501212602 67 158 2.6 2.6 0.00 0.00 0.00 34 1011.0
20260501212059 68 153 7.0 7.8 0.00 0.00 0.00 33 1010.9
20260501211556 68 197 4.3 6.1 0.00 0.00 0.00 34 1010.9
20260501211054 66 179 1.7 2.6 0.00 0.00 0.00 34 1010.8
20260501210550 67 187 2.6 6.1 0.00 0.00 0.00 34 1010.9
20260501210047 68 211 5.2 7.8 0.00 0.00 0.00 33 1010.8
20260501205544 67 81 4.3 7.0 0.00 0.00 0.00 33 1010.5
20260501205042 67 151 7.0 8.7 0.00 0.00 0.00 33 1011.0
20260501204537 67 133 4.3 6.1 0.00 0.00 0.00 34 1011.0
20260501204033 67 152 3.5 5.2 0.00 0.00 0.00 33 1011.1
20260501203530 67 232 3.5 6.1 0.00 0.00 0.00 33 1011.1
20260501203028 67 171 4.3 6.1 0.00 0.00 0.00 33 1011.0
20260501202525 67 251 5.2 6.1 0.00 0.00 0.00 32 1011.4
20260501202021 67 281 6.1 12.2 0.00 0.00 0.00 32 1011.5
20260501201519 67 236 0.0 0.9 0.00 0.00 0.00 33 1011.4
20260501201015 68 198 6.1 7.8 0.00 0.00 0.00 31 1011.6
20260501200512 68 251 2.6 3.5 0.00 0.00 0.00 30 1011.7
20260501200010 67 267 0.9 0.9 0.00 0.00 0.00 29 1011.7
20260501195507 67 284 4.3 7.0 0.00 0.00 0.00 29 1011.9
20260501195002 68 270 5.2 7.0 0.00 0.00 0.00 28 1011.9
20260501194458 68 280 5.2 6.1 0.00 0.00 0.00 28 1012.0
20260501193954 67 57 2.6 3.5 0.00 0.00 0.00 29 1012.1
20260501193452 67 218 4.3 5.2 0.00 0.00 0.00 30 1012.2
20260501192950 67 250 2.6 3.5 0.00 0.00 0.00 29 1012.3
20260501192447 66 226 3.5 3.5 0.00 0.00 0.00 31 1012.4
20260501191944 66 256 7.8 11.3 0.00 0.00 0.00 31 1012.4
20260501191441 67 242 1.7 2.6 0.00 0.00 0.00 32 1012.6
20260501190938 67 276 3.5 3.5 0.00 0.00 0.00 32 1012.7
20260501190435 65 231 5.2 7.0 0.00 0.00 0.00 33 1012.6
20260501185935 66 267 2.6 5.2 0.00 0.00 0.00 33 1012.5
20260501185431 66 178 4.3 5.2 0.00 0.00 0.00 33 1012.8
20260501184927 66 225 6.1 8.7 0.00 0.00 0.00 32 1012.9
20260501184424 66 231 2.6 3.5 0.00 0.00 0.00 32 1013.0
20260501183918 65 207 3.5 6.1 0.00 0.00 0.00 32 1012.8
20260501183416 66 260 0.9 0.9 0.00 0.00 0.00 32 1012.8
20260501182912 66 268 1.7 2.6 0.00 0.00 0.00 33 1013.0
20260501182409 66 247 2.6 3.5 0.00 0.00 0.00 32 1013.1
20260501181906 66 262 0.9 0.9 0.00 0.00 0.00 33 1013.2
20260501181403 65 233 1.7 1.7 0.00 0.00 0.00 33 1013.5
20260501180900 65 175 3.5 5.2 0.00 0.00 0.00 33 1013.3
20260501180356 65 318 1.7 1.7 0.00 0.00 0.00 33 1013.2
20260501175853 65 270 5.2 7.0 0.00 0.00 0.00 33 1013.4
20260501175350 64 147 6.1 7.0 0.00 0.00 0.00 35 1013.4
20260501174847 65 253 3.5 6.1 0.00 0.00 0.00 34 1013.5
20260501174344 65 233 2.6 3.5 0.00 0.00 0.00 34 1013.4
20260501173842 63 254 1.7 1.7 0.00 0.00 0.00 35 1013.5
20260501173340 64 112 3.5 5.2 0.00 0.00 0.00 35 1013.4
20260501172835 64 105 7.0 7.8 0.00 0.00 0.00 34 1013.6